AirNav   Everest Fuels
 
 1386 users online  

99MO Parkland Health Center Heliport
Bonne Terre, Missouri, USA

GOING TO BONNE TERRE?


FAA INFORMATION EFFECTIVE 11 AUGUST 2022

Location

FAA Identifier: 99MO
Lat/Long: 37-54-43.1100N 090-31-55.6700W
37-54.718500N 090-31.927833W
37.9119750,-90.5321306
(estimated)
Elevation: 850 ft. / 259 m (estimated)
Variation: 01E (1995)
From city: 1 mile S of BONNE TERRE, MO
Time zone: UTC -5 (UTC -6 during Standard Time)
Zip code: 63628

Heliport Operations

Heliport use: Private use, FOR MEDICAL USE ONLY.
Activation date: 09/1996
Control tower: no
ARTCC: KANSAS CITY CENTER
FSS: COLUMBIA FLIGHT SERVICE STATION
Attendance: CONTINUOUS
Wind indicator: yes
Segmented circle: no
Lights: FOR PERIMETER LIGHTS CALL 573-760-8163.

Heliport Communications

WX AWOS-3PT at FAM (10 nm SE): 119.275 (573-756-6042)

Nearby radio navigation aids

VOR radial/distance  VOR name  Freq  Var
FAMr314/20.1FARMINGTON VORTAC115.7001E

Heliport Services

Runway Information

Helipad H1

Dimensions: 40 x 40 ft. / 12 x 12 m
Surface: asphalt
Latitude: 37-54.718500N
Longitude: 090-31.927833W
Elevation: 850.0 ft.
Traffic pattern: leftleft

Heliport Ownership and Management from official FAA records

Ownership: Privately-owned
Owner: PARKLAND HEALTH CENTER, BONNE TERRE
7245 RAIDER ROAD
BONNE TERRE, MO 63628
Phone (573) 756-6453
Manager: LYNN RASNICK, ADMIN
7245 RAIDER ROAD
BONNE TERRE, MO 63628
Phone (573) 756-6453

Additional Remarks

A52-H1 40 FT POWER LINE 75 FT E & 75 FT BLDG 200 FT N OF HELIPAD.
OWNER DESIRES ARPT NOT BE CHARTED.
FOR CD CTC KANSAS CITY ARTCC AT 913-254-8508.

Instrument Procedures

There are no published instrument procedures at 99MO.

Some nearby airports with instrument procedures:

8WC - Washington County Airport (9 nm W)
KFAM - Farmington Regional Airport (10 nm SE)
KFES - Festus Memorial Airport (18 nm N)
H88 - A Paul Vance Fredericktown Regional Airport (22 nm SE)
KPCD - Perryville Regional Airport (32 nm E)
 
Loc | Ops | Rwys | IFR | FBO | Links
Com | Nav | Svcs | Stats | Notes
Area around 99MO (Parkland Health Center Heliport)
 
Road maps at: MapQuest Bing Google
 
Aerial photo
No photo
 
Sectional chart

 
Airport distance calculator
Flying to Parkland Health Center Heliport? Find the distance to fly.

From to 99MO

Sunrise and sunset
Times for 16-Aug-2022
 Local
(UTC-5)
 Zulu
(UTC)
Morning civil twilight05:5110:51
Sunrise06:1911:19
Sunset19:5400:54
Evening civil twilight20:2101:21

Current date and time
Zulu (UTC)  16-Aug-2022 23:18:07
Local (UTC-5)  16-Aug-2022 18:18:07
 
METAR
KFAM 
10nm SE 
162256Z AUTO 06006KT 10SM FEW015 OVC055 22/19 A3004 RMK AO2 SLP173 T02170189
TAF
KCPS 
43nm NE 
161919Z 1619/1718 VRB03KT P6SM OVC025 TEMPO 1619/1621 OVC018 FM162100 VRB03KT P6SM BKN035 FM170000 VRB03KT P6SM BKN120
KSUS 
45nm N 
161725Z 1618/1718 VRB03KT P6SM OVC025 FM161900 VRB03KT P6SM BKN035 FM170000 VRB03KT P6SM BKN120
KBLV 
50nm NE 
162013Z 1620/1722 VRB06KT 9999 SCT025 BKN040 BKN080 BKN250 QNH3004INS BECMG 1700/1701 VRB06KT 9999 SCT040 SCT080 SCT250 QNH3004INS BECMG 1707/1708 VRB03KT 8000 BR FEW050 SCT250 QNH3000INS BECMG 1712/1713 04006KT 9999 NSW FEW050 SCT250 QNH3000INS TX26/1621Z TN16/1711Z
NOTAMs
Click for the latest NOTAMs
NOTAMs are issued by the DoD/FAA and will open in a separate window not controlled by AirNav.

 

 
 

Would you like to see your business listed on this page?

 If your business provides an interesting product or service to pilots, flight crews, aircraft, or users of the Parkland Health Center Heliport, you should consider listing it here.  To start the listing process, click on the button below
 
Add a business
 

Other Pages about Parkland Health Center Heliport

Update a link
 
Copyright © AirNav, LLC. All rights reserved. Privacy Policy  Contact